Precipitable_Water
0.51 0.52 0.52 0.52 0.47 0.44 0.43 0.42 0.40 0.39 0.38 0.35 0.33 0.32 0.31 0.30 0.30 0.30 0.29 0.27 0.25 0.23
0.51 0.50 0.51 0.51 0.47 0.44 0.42 0.39 0.38 0.39 0.36 0.34 0.32 0.32 0.31 0.29 0.29 0.29 0.28 0.27 0.26 0.24
0.49 0.49 0.51 0.49 0.46 0.43 0.41 0.40 0.40 0.38 0.36 0.34 0.33 0.32 0.30 0.29 0.29 0.27 0.26 0.25 0.23 0.22
0.49 0.50 0.50 0.48 0.45 0.42 0.42 0.43 0.40 0.37 0.34 0.34 0.33 0.32 0.30 0.29 0.28 0.26 0.24 0.24 0.22 0.21
0.49 0.49 0.47 0.46 0.44 0.43 0.44 0.45 0.44 0.40 0.35 0.33 0.32 0.31 0.30 0.28 0.27 0.23 0.21 0.20 0.20 0.17
0.49 0.47 0.47 0.45 0.44 0.45 0.47 0.47 0.45 0.40 0.33 0.31 0.30 0.30 0.28 0.26 0.22 0.18 0.17 0.17 0.15 0.14
0.50 0.49 0.48 0.47 0.46 0.47 0.48 0.46 0.42 0.38 0.33 0.31 0.30 0.28 0.27 0.23 0.19 0.17 0.16 0.17 0.16 0.15
0.57 0.55 0.51 0.47 0.47 0.49 0.47 0.45 0.42 0.35 0.33 0.31 0.30 0.27 0.27 0.24 0.19 0.17 0.17 0.18 0.18 0.19
0.57 0.62 0.60 0.54 0.48 0.46 0.47 0.43 0.40 0.32 0.31 0.31 0.29 0.30 0.30 0.25 0.19 0.19 0.18 0.18 0.19 0.20
0.56 0.54 0.56 0.53 0.48 0.47 0.42 0.42 0.39 0.33 0.35 0.32 0.33 0.35 0.34 0.28 0.21 0.20 0.19 0.19 0.18 0.18
0.50 0.48 0.48 0.48 0.46 0.44 0.38 0.37 0.37 0.38 0.35 0.34 0.35 0.35 0.33 0.28 0.24 0.21 0.20 0.20 0.18 0.18
0.54 0.50 0.48 0.44 0.46 0.38 0.33 0.36 0.39 0.37 0.37 0.33 0.34 0.35 0.32 0.25 0.22 0.21 0.21 0.20 0.18 0.18
0.55 0.48 0.43 0.40 0.45 0.41 0.34 0.41 0.42 0.42 0.36 0.34 0.32 0.34 0.30 0.25 0.22 0.21 0.21 0.22 0.21 0.19
0.56 0.53 0.49 0.48 0.44 0.44 0.47 0.48 0.48 0.42 0.38 0.33 0.32 0.32 0.31 0.25 0.23 0.23 0.22 0.22 0.21 0.20
Wind_Speed
22 21 21 20 19 18 17 16 16 16 17 17 17 17 16 16 16 16 15 14 13 11
22 22 21 20 19 18 16 16 16 16 16 16 16 16 16 16 15 14 14 13 11 9
22 22 22 21 19 18 17 16 16 16 16 16 15 15 15 15 14 13 12 10 9 7
22 22 21 21 20 19 18 17 16 16 16 16 15 15 14 14 13 12 11 9 8 8
22 22 22 22 21 20 19 18 17 17 17 16 16 15 14 13 12 11 10 9 8 8
23 23 23 22 21 20 19 18 18 17 17 16 15 14 13 12 11 10 9 8 7 7
24 24 23 23 22 21 20 19 18 18 17 16 15 13 12 11 10 9 9 8 7 7
26 26 25 24 23 22 21 20 19 18 17 16 15 13 12 11 11 10 10 9 9 8
26 26 27 25 23 22 21 20 18 17 16 15 15 14 12 12 12 11 11 10 9 9
26 27 29 28 27 24 23 21 19 18 16 16 15 15 14 13 13 12 11 10 10 10
25 26 27 27 26 25 24 22 21 20 19 18 17 16 14 14 14 13 12 11 11 11
24 26 27 27 26 25 24 23 22 21 20 19 18 17 16 15 14 14 13 12 12 12
21 22 24 25 25 25 24 23 22 22 21 20 19 18 18 17 16 15 14 13 13 13
20 20 21 21 22 22 22 22 22 22 21 21 20 19 20 19 17 16 15 14 15 15
Wind_Direction
241 241 242 244 247 249 253 257 262 269 275 278 279 281 283 285 286 284 285 286 285 280
241 241 241 243 244 247 251 256 263 270 275 278 279 280 281 283 283 282 280 278 274 268
240 239 239 239 239 242 248 255 264 271 274 276 278 279 279 280 278 276 274 268 263 256
238 237 236 235 237 242 247 255 263 269 273 274 275 277 276 273 272 270 264 257 247 254
235 233 233 235 238 242 247 255 263 269 272 271 271 273 270 267 266 261 251 241 244 256
233 233 235 235 237 241 247 255 263 268 270 268 266 264 263 260 258 247 235 234 242 257
233 233 234 235 238 241 248 254 262 267 266 263 258 254 253 251 245 231 228 235 245 261
234 234 234 236 238 242 247 253 260 263 261 254 246 245 244 244 236 227 232 242 253 265
236 234 228 232 235 244 243 252 254 257 248 239 238 235 238 239 230 230 236 244 256 266
236 233 234 237 241 243 244 246 249 246 238 236 237 234 239 235 232 234 240 249 259 267
236 237 237 237 239 240 242 242 242 238 238 235 236 236 239 233 231 235 244 254 261 269
240 239 236 236 238 238 238 239 238 237 232 233 236 237 233 230 231 237 245 254 264 274
239 237 234 233 234 234 235 234 232 234 231 232 235 235 230 231 235 239 244 255 268 277
237 235 232 230 229 229 232 232 229 226 232 235 235 236 232 233 238 240 248 258 269 277